Location: Peebles
(55.6412°N, 3.1714°W)
Time: 16:46:45
(UTC+01:00)

deb Kosmos-2123 - Visible Passes

Search period start: 03 July 2022 00:00
Search period end: 13 July 2022 00:00
Orbit: 944 x 984 km, 82.9° (Epoch: 02 July)

Date Brightness Start Highest point End Pass type
(mag) Time Alt. Az. Time Alt. Az. Time Alt. Az.
03 Jul ? 00:43:57 10° SE 00:49:16 30° E 00:54:34 10° NNE visible
03 Jul ? 02:28:11 12° SSW 02:33:59 67° WNW 02:40:15 10° N visible
04 Jul ? 01:05:34 13° SSE 01:10:53 44° E 01:16:47 10° NNE visible
04 Jul ? 02:50:03 10° SW 02:56:04 46° WNW 03:02:05 10° N visible
04 Jul ? 23:45:15 10° ESE 23:48:40 15° ENE 23:52:05 10° NE visible
05 Jul ? 01:27:21 15° S 01:32:39 66° E 01:38:51 10° NNE visible
05 Jul ? 03:12:44 10° SW 03:18:17 32° WNW 03:23:52 10° N visible
06 Jul ? 00:05:21 10° SE 00:10:06 23° E 00:14:50 10° NNE visible
06 Jul ? 01:49:07 15° SSW 01:54:32 85° W 02:00:50 10° N visible
06 Jul ? 03:35:48 10° WSW 03:40:39 23° NW 03:45:31 10° N visible
07 Jul ? 00:26:28 12° SE 00:31:39 34° E 00:37:10 10° NNE visible
07 Jul ? 02:10:53 13° SSW 02:16:32 59° WNW 02:22:43 10° N visible
07 Jul ? 23:07:48 10° E 23:09:38 11° ENE 23:11:28 10° NE visible
08 Jul ? 00:48:13 15° SSE 00:53:19 51° E 00:59:20 10° NNE visible
08 Jul ? 02:32:48 10° SW 02:38:40 40° WNW 02:44:32 10° N visible
08 Jul ? 23:27:02 10° ESE 23:30:59 18° ENE 23:34:56 10° NE visible
09 Jul ? 01:09:57 16° S 01:15:08 76° E 01:21:22 10° NNE visible
09 Jul ? 02:55:36 10° WSW 03:00:56 28° WNW 03:06:16 10° N visible
09 Jul ? 23:47:25 10° SE 23:52:28 26° E 23:57:30 10° NNE visible
10 Jul ? 01:31:41 15° SSW 01:37:03 75° WNW 01:43:18 10° N visible
10 Jul ? 03:18:49 10° W 03:23:20 20° NW 03:27:51 10° N visible
11 Jul ? 00:08:59 13° SSE 00:14:03 39° E 00:19:46 10° NNE visible
11 Jul ? 01:53:24 12° SW 01:59:05 51° WNW 02:05:11 10° N visible
11 Jul ? 03:42:34 10° WNW 03:45:52 14° NW 03:49:11 10° NNW visible
11 Jul ? 22:49:08 10° E 22:51:55 13° ENE 22:54:42 10° NE visible
12 Jul ? 00:30:41 15° SSE 00:35:46 58° E 00:41:52 10° NNE visible
12 Jul ? 02:15:34 10° SW 02:21:16 35° WNW 02:26:57 10° N visible
12 Jul ? 23:08:55 10° ESE 23:13:18 20° ENE 23:17:40 10° NNE visible
